#timestamp,LO_Frequency,Hit,StdDev 
1514952015.7,286046995.0,P
1514952035.5,286046997.6,P
1514952055.3,286046999.5,N
1514952075.2,286047000.2,N
1514952095.0,286047001.6,N
1514952095.9,286047001.6,N
1514952115.7,286047004.3,N
1514952135.6,286047001.5,N
1514952155.4,286047004.0,N
1514952175.2,286047005.5,N
1514952195.1,286047008.8,N
1514952196.0,286047008.8,N
1514952215.8,286047007.7,N
1514952235.6,286047012.4,N
1514952255.5,286047015.5,Y
1514952275.3,286047013.6,P
1514952295.1,286047014.5,N
1514952315.9,286047016.7,P
1514952335.7,286047019.6,Y
1514952355.5,286047012.1,P
1514952375.4,286047013.2,P
1514952395.2,286047015.8,P
1514952415.0,286047021.5,Y
1514952415.9,286047021.5,P
1514952435.8,286047010.6,N
1514952455.6,286047012.5,N
1514952475.4,286047017.0,Y
1514952495.3,286047004.2,P
1514952515.1,286047004.2,N
1514952535.8,286047005.8,N
1514952555.7,286047008.8,N
1514952575.5,286047008.9,N
1514952595.3,286047006.6,N
1514952615.2,286047008.7,N
1514952635.9,286047010.3,Y
1514952655.7,286047002.1,P
1514952675.6,286046999.9,N
1514952695.4,286047005.6,N
1514952715.2,286047004.5,N
1514952735.0,286046999.9,N
1514952736.0,286046999.9,N
1514952755.8,286047002.2,N
1514952775.6,286046995.3,N
1514952795.4,286046995.7,N
1514952815.3,286046996.9,N
1514952835.1,286046997.3,N
1514952855.8,286046999.0,N
1514952875.7,286046998.3,N
1514952895.5,286047000.7,N
1514952915.3,286047001.7,N
1514952935.2,286047002.4,N
1514952955.9,286047001.6,N
1514952975.7,286047000.4,N
1514952995.6,286046994.9,N
1514953015.4,286046996.2,N
1514953035.2,286046996.1,N
1514953055.0,286046995.1,N
1514953055.9,286046995.1,N
1514953075.8,286046994.4,N
1514953095.6,286046994.8,N
1514953115.4,286046991.3,N
1514953135.3,286046989.3,N
1514953155.1,286046987.1,Y
1514953175.8,286046990.3,P
1514953195.7,286046989.0,N
1514953215.5,286046987.1,P
1514953235.3,286046989.4,N
1514953255.2,286046988.0,Y
1514953275.9,286046995.8,P
1514953295.7,286046995.2,N
1514953315.6,286046995.5,N
1514953335.4,286046990.6,Y
1514953355.2,286046995.2,P
1514953375.1,286046995.3,P
1514953376.0,286046995.3,P
1514953395.8,286046993.3,Y
1514953415.6,286047000.8,P
1514953435.5,286047003.9,N
1514953455.3,286047001.7,N
1514953475.1,286047000.9,N
1514953495.9,286046996.8,N
1514953515.7,286046996.0,N
1514953535.5,286046993.7,N
1514953555.4,286046991.9,N
1514953575.2,286046993.0,N
1514953595.0,286046994.2,N
1514953595.9,286046994.2,N
1514953615.8,286046998.3,N
1514953635.6,286046999.0,N
1514953655.4,286046999.6,N
1514953675.2,286046996.9,N
1514953695.1,286046999.1,N
1514953696.0,286046999.1,N
1514953715.8,286047002.8,N
1514953735.6,286047001.4,N
1514953755.5,286047000.0,N
1514953775.3,286047000.7,N
1514953795.1,286046999.0,N
1514953815.9,286046998.7,N
1514953835.7,286046998.8,N
1514953855.5,286046999.5,N
1514953875.4,286046999.9,N
1514953895.2,286047001.6,N
1514953915.0,286047002.4,N
1514953915.9,286047002.4,N
1514953935.8,286046999.9,N
1514953955.6,286047000.1,N
1514953975.4,286046997.6,N
1514953995.2,286046993.3,N
1514954015.1,286046994.0,N
1514954016.0,286046994.0,N
1514954035.8,286046994.5,N
1514954055.6,286046996.4,N
1514954075.5,286046997.9,N
1514954095.3,286046993.3,N
1514954115.1,286046995.1,N
1514954135.9,286046996.4,N
1514954155.7,286046994.3,N
1514954175.5,286046992.5,N
1514954195.4,286046991.5,N
1514954215.2,286046993.0,N
1514954235.0,286046993.0,N
1514954235.9,286046993.0,N
1514954255.8,286046994.1,N
1514954275.6,286046994.0,N
1514954295.4,286046996.1,N
1514954315.2,286046998.6,N
1514954335.1,286047000.4,N
1514954336.0,286047000.4,N
1514954355.8,286046999.7,N
1514954375.6,286046999.7,N
1514954395.5,286047000.8,N
1514954415.3,286047004.3,N
1514954435.1,286046999.8,N
1514954455.9,286047002.8,N
1514954475.7,286047003.1,N
1514954495.5,286047005.2,N
1514954515.4,286047005.8,N
1514954535.2,286047009.0,N
1514954555.0,286047006.9,N
1514954555.9,286047006.9,N
1514954575.8,286047010.3,N
1514954595.6,286047010.6,N
1514954615.4,286047009.0,N
1514954635.3,286047004.5,N
1514954655.1,286047004.9,N
1514954656.0,286047004.9,N
1514954675.8,286047004.6,N
1514954695.7,286047005.4,N
1514954715.5,286047005.8,N
1514954735.3,286047004.6,N
1514954755.1,286047006.2,N
1514954775.9,286047007.2,N
1514954795.7,286047005.9,N
1514954815.5,286047005.7,N
1514954835.4,286047004.9,N
1514954855.2,286047005.4,N
1514954875.0,286047001.6,N
1514954875.9,286047001.6,N
1514954895.8,286047000.6,N
1514954915.6,286047001.9,N
1514954935.4,286047003.9,N
1514954955.3,286046999.8,N
1514954975.1,286046999.6,N
1514954976.0,286046999.6,N
1514954995.8,286046997.0,N
1514955015.7,286046997.4,N
1514955035.5,286046995.6,N
1514955055.3,286046994.5,N
1514955075.2,286046994.5,N
1514955095.9,286046994.7,N
1514955115.7,286046990.6,N
1514955135.5,286046991.3,N
1514955155.4,286046990.9,N
1514955175.2,286046989.8,N
1514955195.0,286046987.5,N
1514955195.9,286046987.5,N
1514955215.8,286046986.1,N
1514955235.6,286046982.7,N
1514955255.4,286046981.8,N
1514955275.3,286046983.6,N
1514955295.1,286046982.8,N
1514955296.0,286046982.8,N
1514955315.8,286046980.7,N
1514955335.7,286046982.2,N
1514955355.5,286046983.5,N
1514955375.3,286046981.1,N
1514955395.2,286046979.8,N
1514955415.9,286046981.7,N
1514955435.7,286046976.6,Y
1514955455.6,286046984.2,P
1514955475.4,286046983.0,P
1514955495.2,286046980.5,P
1514955515.1,286046981.7,Y
1514955516.0,286046981.7,P
1514955535.8,286046999.0,N
1514955555.6,286046999.0,N
1514955575.5,286047000.9,N
1514955595.3,286047001.5,N
